Osijek - Cepin, Croatia

8:55 AM CEST on August 21, 2017 (GMT +0200)
Osijek - Cepin

Weather History for LDOS - March, 2014

Change the Weather History Date:

Saturday, March 1, 2014

  Actual Average Record
Temperature  
Mean Temperature 47 °F -  
Max Temperature 59 °F - - ()
Min Temperature 35 °F - - ()
Degree Days  
Heating Degree Days 18    
Moisture  
Dew Point 37 °F    
Average Humidity 74    
Maximum Humidity 93    
Minimum Humidity 31    
Precipitation  
Precipitation 0.00 in - - ()
Sea Level Pressure  
Sea Level Pressure 29.70 in    
Wind  
Wind Speed 8 mph ()    
Max Wind Speed 14 mph    
Max Gust Speed -    
T = Trace of Precipitation, MM = Missing Value Source: Averaged Metar Reports

Daily Weather History Graph

Daily Weather History Graph

Search for Another Location

Airport or City:

Trip Planner

Search our weather history database for the weather conditions in past years. The results will help you decide how hot, cold, wet, or windy it might be!

Date:

Astronomy

Mar. 01, 2014 Rise Set
Actual Time 6:24 AM CET 5:32 PM CET
Civil Twilight 5:54 AM CET 6:01 PM CET
Nautical Twilight 5:20 AM CET 6:36 PM CET
Astronomical Twilight 4:46 AM CET 7:10 PM CET
Moon 6:04 AM CET (3/1) 6:01 PM CET (3/1)
Length of Visible Light 12h 07m
Length of Day
11h 07m
New Moon, 0% of the Moon is Illuminated
Mar 1
New Moon
Mar 8
First Quarter
Mar 16
Full
Mar 24
Last Quarter
Mar 30
New

Hourly Weather History & Observations

Time (CET) Temp. Windchill Dew Point Humidity Pressure Visibility Wind Dir Wind Speed Gust Speed Precip Events Conditions
12:00 AM 41.0 °F 38.0 °F 39.2 °F 93% 29.80 in - ESE 4.6 mph - N/A   Clear
12:30 AM 41.0 °F 37.1 °F 39.2 °F 93% 29.80 in - ESE 5.8 mph - N/A   Clear
1:00 AM 41.0 °F 37.1 °F 39.2 °F 93% 29.80 in - ESE 5.8 mph - N/A   Clear
1:30 AM 41.0 °F 38.0 °F 39.2 °F 93% 29.80 in - SE 4.6 mph - N/A   Clear
2:00 AM 41.0 °F 38.0 °F 39.2 °F 93% 29.80 in - East 4.6 mph - N/A   Clear
2:30 AM 41.0 °F 37.1 °F 39.2 °F 93% 29.77 in - East 5.8 mph - N/A   Clear
3:00 AM 39.2 °F 35.0 °F 37.4 °F 93% 29.77 in - ESE 5.8 mph - N/A   Clear
3:30 AM 39.2 °F 35.9 °F 37.4 °F 93% 29.77 in - ESE 4.6 mph - N/A   Clear
4:00 AM 37.4 °F 33.8 °F 35.6 °F 93% 29.77 in - ESE 4.6 mph - N/A   Clear
4:30 AM 37.4 °F 32.8 °F 35.6 °F 93% 29.77 in - ESE 5.8 mph - N/A   Clear
5:00 AM 37.4 °F 30.8 °F 35.6 °F 93% 29.77 in - ESE 9.2 mph - N/A   Clear
5:30 AM 37.4 °F 30.8 °F 35.6 °F 93% 29.77 in - ESE 9.2 mph - N/A   Clear
6:00 AM 37.4 °F 30.8 °F 35.6 °F 93% 29.77 in - ESE 9.2 mph - N/A   Clear
6:30 AM 37.4 °F 32.1 °F 35.6 °F 93% 29.77 in - ESE 6.9 mph - N/A   Clear
7:00 AM 35.6 °F 28.6 °F 33.8 °F 93% 29.77 in - East 9.2 mph - N/A   Clear
7:30 AM 35.6 °F 29.2 °F 33.8 °F 93% 29.77 in - ESE 8.1 mph - N/A   Clear
8:00 AM 39.2 °F 34.2 °F 37.4 °F 93% 29.77 in - ESE 6.9 mph - N/A   Clear
8:30 AM 41.0 °F 35.8 °F 37.4 °F 87% 29.77 in - ESE 8.1 mph - N/A   Clear
9:00 AM 44.6 °F 39.7 °F 41.0 °F 87% 29.77 in - ESE 9.2 mph - N/A   Clear
9:30 AM 46.4 °F 41.9 °F 41.0 °F 81% 29.77 in - ESE 9.2 mph - N/A   Clear
10:00 AM 48.2 °F - 41.0 °F 76% 29.74 in - East 9.2 mph - N/A   Clear
10:30 AM 48.2 °F - 41.0 °F 76% 29.74 in - East 11.5 mph - N/A   Clear
11:00 AM 50.0 °F - 41.0 °F 71% 29.74 in - East 10.4 mph - N/A   Clear
11:30 AM 51.8 °F - 41.0 °F 67% 29.74 in - East 9.2 mph - N/A   Clear
12:00 PM 55.4 °F - 32.0 °F 41% 29.71 in - ESE 13.8 mph - N/A   Clear
12:30 PM 57.2 °F - 32.0 °F 38% 29.71 in - ESE 12.7 mph - N/A   Clear
1:00 PM 59.0 °F - 32.0 °F 36% 29.71 in - ESE 11.5 mph - N/A   Clear
1:30 PM 59.0 °F - 32.0 °F 36% 29.68 in - SE 13.8 mph - N/A   Clear
2:00 PM 59.0 °F - 30.2 °F 34% 29.68 in - SE 13.8 mph - N/A   Clear
2:30 PM 59.0 °F - 30.2 °F 34% 29.65 in - SE 11.5 mph - N/A   Clear
3:00 PM 59.0 °F - 28.4 °F 31% 29.65 in - ESE 12.7 mph - N/A   Clear
3:30 PM 59.0 °F - 28.4 °F 31% 29.65 in - ESE 12.7 mph - N/A   Clear
4:00 PM 59.0 °F - 32.0 °F 36% 29.62 in - ESE 11.5 mph - N/A   Clear
4:30 PM 57.2 °F - 32.0 °F 38% 29.62 in - East 10.4 mph - N/A   Clear
5:00 PM 55.4 °F - 35.6 °F 47% 29.62 in - East 9.2 mph - N/A   Clear
5:30 PM 53.6 °F - 37.4 °F 54% 29.62 in - East 10.4 mph - N/A   Clear
6:00 PM 51.8 °F - 39.2 °F 62% 29.62 in - East 10.4 mph - N/A   Clear
6:30 PM 50.0 °F - 39.2 °F 66% 29.62 in - East 10.4 mph - N/A   Clear
7:00 PM 48.2 °F - 41.0 °F 76% 29.62 in - ESE 11.5 mph - N/A   Clear
7:30 PM 48.2 °F - 41.0 °F 76% 29.62 in - East 10.4 mph - N/A   Clear
8:00 PM 46.4 °F 41.5 °F 42.8 °F 87% 29.62 in - East 10.4 mph - N/A   Clear
8:30 PM 46.4 °F 41.5 °F 42.8 °F 87% 29.59 in - East 10.4 mph - N/A   Clear
9:00 PM 44.6 °F 38.4 °F 41.0 °F 87% 29.59 in - East 12.7 mph - N/A   Clear
9:30 PM 44.6 °F 38.4 °F 41.0 °F 87% 29.59 in - East 12.7 mph - N/A   Clear
10:00 PM 42.8 °F 37.0 °F 39.2 °F 87% 29.59 in - East 10.4 mph - N/A   Clear
10:30 PM 42.8 °F 37.0 °F 39.2 °F 87% 29.59 in - East 10.4 mph - N/A   Clear
11:00 PM 39.2 °F 32.0 °F 37.4 °F 93% 29.59 in - East 11.5 mph - N/A   Clear
11:30 PM 39.2 °F 33.0 °F 37.4 °F 93% 29.56 in - ENE 9.2 mph - N/A   Clear